Location: Madrid
(40.4000°N, 3.6830°W)
Time: 12:45:13
(UTC+02:00)

ISS - Pass Details

Date: 31 May 2020
Orbit: 417 x 419 km, 51.6° (Epoch: 31 May)

Event Time Altitude Azimuth Distance (km) Brightness Sun altitude
Rises 00:46:15 0° 294° (WNW) 2,364 0.7 -24.5°
Reaches altitude 10° 00:48:42 10° 277° (W) 1,497 -0.6 -24.7°
Enters shadow 00:49:10 12° 272° (W) 1,357 -0.9 -24.7°
